When you browse on this site, cookies collect data to enhance your experience and personalize the content and advertising you see.
Visit our Privacy Policy to learn more. By continuing to use the site, you agree to this use of cookies and data.
  • Em Portugal
  • Lista de países
  • Para 7 dias
  • Temperatura da água
  • Mapas de satélite
  • Mapa do tempo
  • Widgets de tempo
  • user-avatar
    Iniciar Sessão

    Previsão horária em Oran

    Hoje, 24 Maio, Sexta-feira

    Tempo Temperatura Precipitação Vento Pressão Humidade
    00:00 +24°C° 0 mm 2 m/s 750 mmHg 43%
    01:00 +23°C° 0 mm 2 m/s 750 mmHg 45%
    02:00 +23°C° 0 mm 2 m/s 750 mmHg 47%
    03:00 +21°C° 0 mm 3 m/s 749 mmHg 49%
    04:00 +21°C° 0 mm 3 m/s 749 mmHg 49%
    05:00 +21°C° 0 mm 2 m/s 749 mmHg 49%
    06:00 +23°C° 0 mm 2 m/s 749 mmHg 46%
    07:00 +24°C° 0 mm 2 m/s 749 mmHg 42%
    08:00 +26°C° 0 mm 2 m/s 749 mmHg 38%
    09:00 +27°C° 0 mm 2 m/s 749 mmHg 34%
    10:00 +28°C° 0 mm 3 m/s 748 mmHg 32%
    11:00 +29°C° 0 mm 3 m/s 748 mmHg 29%
    12:00 +30°C° 0 mm 4 m/s 748 mmHg 27%
    13:00 +29°C° 0 mm 4 m/s 748 mmHg 28%
    14:00 +29°C° 0 mm 4 m/s 747 mmHg 28%
    15:00 +28°C° 0 mm 4 m/s 747 mmHg 29%
    16:00 +27°C° 0 mm 4 m/s 747 mmHg 32%
    17:00 +26°C° 0 mm 3 m/s 747 mmHg 35%
    18:00 +25°C° 0 mm 2 m/s 747 mmHg 38%
    19:00 +25°C° 0 mm 2 m/s 748 mmHg 44%
    20:00 +24°C° 0 mm 2 m/s 748 mmHg 49%
    21:00 +23°C° 0 mm 2 m/s 749 mmHg 54%
    22:00 +21°C° 0 mm 3 m/s 749 mmHg 60%
    23:00 +21°C° 0 mm 3 m/s 749 mmHg 66%

    Amanhã, 25 Maio, Sábado

    Tempo Temperatura Precipitação Vento Pressão Humidade
    00:00 +20°C° 0 mm 4 m/s 749 mmHg 72%
    01:00 +20°C° 0 mm 4 m/s 749 mmHg 75%
    02:00 +19°C° 0 mm 4 m/s 748 mmHg 77%
    03:00 +19°C° 0 mm 4 m/s 748 mmHg 79%
    04:00 +19°C° 0 mm 4 m/s 749 mmHg 77%
    05:00 +19°C° 0 mm 4 m/s 749 mmHg 74%
    06:00 +19°C° 0 mm 4 m/s 749 mmHg 72%
    07:00 +20°C° 0 mm 4 m/s 750 mmHg 64%
    08:00 +21°C° 0 mm 4 m/s 750 mmHg 57%
    09:00 +22°C° 0 mm 5 m/s 750 mmHg 50%
    10:00 +23°C° 0 mm 5 m/s 750 mmHg 48%
    11:00 +23°C° 0 mm 5 m/s 750 mmHg 47%
    12:00 +24°C° 0 mm 6 m/s 751 mmHg 45%
    13:00 +24°C° 0 mm 6 m/s 751 mmHg 47%
    14:00 +23°C° 0 mm 6 m/s 751 mmHg 49%
    15:00 +23°C° 0 mm 6 m/s 751 mmHg 51%
    16:00 +23°C° 0 mm 6 m/s 751 mmHg 55%
    17:00 +22°C° 0 mm 5 m/s 751 mmHg 59%
    18:00 +21°C° 0 mm 4 m/s 751 mmHg 62%
    19:00 +20°C° 0 mm 4 m/s 752 mmHg 66%
    20:00 +20°C° 0 mm 3 m/s 752 mmHg 70%
    21:00 +19°C° 0 mm 2 m/s 753 mmHg 74%
    22:00 +19°C° 0 mm 2 m/s 752 mmHg 75%
    23:00 +20°C° 0 mm 1 m/s 752 mmHg 76%

    Depois de amanhã, 26 Maio, Domingo

    Tempo Temperatura Precipitação Vento Pressão Humidade
    00:00 +20°C° 0 mm 1 m/s 752 mmHg 77%
    01:00 +19°C° 0 mm 1 m/s 752 mmHg 79%
    02:00 +19°C° 0 mm 1 m/s 752 mmHg 81%
    03:00 +19°C° 0 mm 1 m/s 752 mmHg 83%
    04:00 +17°C° 0 mm 0 m/s 752 mmHg 81%
    05:00 +17°C° 0 mm 0 m/s 752 mmHg 80%
    06:00 +17°C° 0 mm 0 m/s 752 mmHg 79%
    07:00 +20°C° 0 mm 1 m/s 752 mmHg 72%
    08:00 +21°C° 0 mm 1 m/s 752 mmHg 66%
    09:00 +22°C° 0 mm 1 m/s 752 mmHg 59%
    10:00 +23°C° 0 mm 2 m/s 752 mmHg 55%
    11:00 +24°C° 0 mm 3 m/s 752 mmHg 50%
    12:00 +25°C° 0 mm 4 m/s 752 mmHg 46%
    13:00 +25°C° 0 mm 4 m/s 752 mmHg 45%
    14:00 +26°C° 0 mm 5 m/s 752 mmHg 45%
    15:00 +26°C° 0 mm 5 m/s 751 mmHg 44%
    16:00 +25°C° 0 mm 5 m/s 751 mmHg 47%
    17:00 +23°C° 0 mm 5 m/s 751 mmHg 50%
    18:00 +23°C° 0 mm 4 m/s 751 mmHg 53%
    19:00 +22°C° 0 mm 4 m/s 751 mmHg 57%
    20:00 +22°C° 0 mm 3 m/s 751 mmHg 60%
    21:00 +21°C° 0 mm 3 m/s 752 mmHg 63%
    22:00 +21°C° 0 mm 2 m/s 751 mmHg 65%
    23:00 +21°C° 0 mm 2 m/s 751 mmHg 66%

    27 Maio, Segunda-feira

    Tempo Temperatura Precipitação Vento Pressão Humidade
    00:00 +21°C° 0 mm 1 m/s 751 mmHg 67%
    01:00 +21°C° 0 mm 1 m/s 751 mmHg 68%
    02:00 +21°C° 0 mm 1 m/s 750 mmHg 68%
    03:00 +20°C° 0 mm 1 m/s 750 mmHg 68%
    04:00 +21°C° 0 mm 1 m/s 750 mmHg 66%
    05:00 +22°C° 0 mm 1 m/s 750 mmHg 63%
    06:00 +22°C° 0 mm 1 m/s 750 mmHg 60%
    07:00 +23°C° 0 mm 1 m/s 750 mmHg 54%
    08:00 +25°C° 0 mm 1 m/s 750 mmHg 48%
    09:00 +24°C° 0 mm 0 m/s 750 mmHg 41%
    10:00 +27°C° 0 mm 1 m/s 750 mmHg 37%
    11:00 +28°C° 0 mm 2 m/s 750 mmHg 34%
    12:00 +29°C° 0 mm 3 m/s 750 mmHg 30%
    13:00 +30°C° 0 mm 4 m/s 749 mmHg 30%
    14:00 +30°C° 0 mm 4 m/s 749 mmHg 30%
    15:00 +30°C° 0 mm 5 m/s 748 mmHg 31%
    16:00 +29°C° 0 mm 5 m/s 748 mmHg 32%
    17:00 +29°C° 0 mm 4 m/s 748 mmHg 34%
    18:00 +28°C° 0 mm 4 m/s 748 mmHg 36%
    19:00 +27°C° 0 mm 4 m/s 748 mmHg 39%
    20:00 +26°C° 0 mm 3 m/s 749 mmHg 41%
    21:00 +25°C° 0 mm 2 m/s 749 mmHg 44%
    22:00 +25°C° 0 mm 2 m/s 749 mmHg 46%
    23:00 +24°C° 0 mm 2 m/s 749 mmHg 47%

    28 Maio, Terça-feira

    Tempo Temperatura Precipitação Vento Pressão Humidade
    00:00 +24°C° 0 mm 2 m/s 749 mmHg 49%
    01:00 +23°C° 0 mm 1 m/s 748 mmHg 49%
    02:00 +23°C° 0 mm 1 m/s 748 mmHg 50%
    03:00 +23°C° 0 mm 1 m/s 748 mmHg 50%
    04:00 +23°C° 0 mm 1 m/s 748 mmHg 49%
    05:00 +24°C° 0 mm 1 m/s 748 mmHg 47%
    06:00 +24°C° 0 mm 1 m/s 748 mmHg 46%
    07:00 +26°C° 0 mm 1 m/s 748 mmHg 41%
    08:00 +27°C° 0 mm 1 m/s 748 mmHg 36%
    09:00 +29°C° 0 mm 2 m/s 748 mmHg 31%
    10:00 +30°C° 0 mm 2 m/s 748 mmHg 29%
    11:00 +31°C° 0 mm 3 m/s 747 mmHg 27%
    12:00 +33°C° 0 mm 4 m/s 747 mmHg 25%
    13:00 +33°C° 0 mm 4 m/s 747 mmHg 25%
    14:00 +33°C° 0 mm 4 m/s 746 mmHg 25%
    15:00 +33°C° 0 mm 5 m/s 746 mmHg 25%
    16:00 +32°C° 0 mm 4 m/s 746 mmHg 27%
    17:00 +32°C° 0 mm 4 m/s 746 mmHg 28%
    18:00 +30°C° 0 mm 3 m/s 746 mmHg 30%
    19:00 +29°C° 0 mm 2 m/s 746 mmHg 33%
    20:00 +27°C° 0 mm 1 m/s 747 mmHg 36%
    21:00 +24°C° 0 mm 0 m/s 747 mmHg 40%
    22:00 +26°C° 0 mm 1 m/s 747 mmHg 41%
    23:00 +25°C° 0 mm 2 m/s 748 mmHg 42%

    29 Maio, Quarta-feira

    Tempo Temperatura Precipitação Vento Pressão Humidade
    00:00 +25°C° 0 mm 2 m/s 748 mmHg 43%
    01:00 +24°C° 0 mm 3 m/s 748 mmHg 49%
    02:00 +22°C° 0 mm 3 m/s 748 mmHg 55%
    03:00 +22°C° 0 mm 4 m/s 748 mmHg 61%
    04:00 +21°C° 0 mm 5 m/s 749 mmHg 66%
    05:00 +21°C° 0 mm 6 m/s 749 mmHg 70%
    06:00 +21°C° 0 mm 7 m/s 750 mmHg 75%
    07:00 +22°C° 0 mm 8 m/s 750 mmHg 70%
    08:00 +22°C° 0 mm 8 m/s 750 mmHg 65%
    09:00 +23°C° 0 mm 9 m/s 751 mmHg 60%
    10:00 +24°C° 0 mm 9 m/s 751 mmHg 57%
    11:00 +24°C° 0 mm 10 m/s 751 mmHg 55%
    12:00 +26°C° 0 mm 10 m/s 751 mmHg 52%
    13:00 +24°C° 0 mm 10 m/s 751 mmHg 53%
    14:00 +24°C° 0 mm 9 m/s 751 mmHg 53%
    15:00 +24°C° 0 mm 9 m/s 751 mmHg 54%
    16:00 +23°C° 0 mm 8 m/s 751 mmHg 56%
    17:00 +22°C° 0 mm 8 m/s 752 mmHg 58%
    18:00 +22°C° 0 mm 7 m/s 752 mmHg 61%
    19:00 +21°C° 0 mm 7 m/s 752 mmHg 64%
    20:00 +21°C° 0 mm 6 m/s 753 mmHg 68%
    21:00 +20°C° 0 mm 6 m/s 754 mmHg 72%
    22:00 +20°C° 0 mm 6 m/s 754 mmHg 74%
    23:00 +20°C° 0 mm 5 m/s 754 mmHg 76%
    Mostrar mais